Weather History for Norwood, MA

Change the Weather History Date:

Saturday, April 12, 2014

  Actual Average Record
Temperature  
Mean Temperature 58 °F -  
Max Temperature 69 °F 56 °F 73 °F (2008)
Min Temperature 46 °F 34 °F 27 °F (2002)
Degree Days  
Heating Degree Days 8    
Growing Degree Days 8 (Base 50)    
Moisture  
Dew Point 38 °F    
Average Humidity 58    
Maximum Humidity 93    
Minimum Humidity 22    
Precipitation  
Precipitation 0.00 in - - ()
Sea Level Pressure  
Sea Level Pressure 30.11 in    
Wind  
Wind Speed 5 mph (WNW)    
Max Wind Speed 20 mph    
Max Gust Speed 22 mph    
Visibility 10 miles    
Events      
Averages and records for this station are not official NWS values.
T = Trace of Precipitation, MM = Missing Value Source: NWS Daily Summary

Daily Weather History Graph

Daily Weather History Graph

Search for Another Location

Airport:

Trip Planner

Search our weather history database for the weather conditions in past years. The results will help you decide how hot, cold, wet, or windy it might be!

Date:

Astronomy

Apr. 12, 2014 Rise Set
Actual Time 6:08 AM EDT 7:22 PM EDT
Civil Twilight 5:40 AM EDT 7:51 PM EDT
Nautical Twilight 5:05 AM EDT 8:26 PM EDT
Astronomical Twilight 4:29 AM EDT 9:02 PM EDT
Moon 4:55 PM EDT (4/12) 4:37 AM EDT (4/12)
Length of Visible Light 14h 11m
Length of Day
13h 13m
Waxing Gibbous, 93% of the Moon is Illuminated
Apr 12
Waxing Gibbous
Apr 15
Full
Apr 22
Last Quarter
Apr 29
New
May 6
First Quarter

Hourly Weather History & Observations

Time (EDT) Temp. Dew Point Humidity Pressure Visibility Wind Dir Wind Speed Gust Speed Precip Events Conditions
12:53 AM 53.1 °F 44.1 °F 71% 29.99 in 10.0 mi Calm Calm - 0.00 in   Overcast
1:53 AM 51.1 °F 48.0 °F 89% 29.97 in 10.0 mi Calm Calm - 0.00 in   Overcast
2:53 AM 50.0 °F 46.0 °F 86% 29.99 in 10.0 mi Calm Calm - N/A   Overcast
3:53 AM 50.0 °F 46.9 °F 89% 30.01 in 10.0 mi NNW 3.5 mph - 0.00 in   Overcast
4:01 AM 50.0 °F 46.9 °F 89% 30.02 in 10.0 mi NNW 4.6 mph - N/A   Overcast
4:41 AM 48.9 °F 46.0 °F 90% 30.04 in 10.0 mi WNW 5.8 mph - N/A   Overcast
4:53 AM 48.9 °F 46.0 °F 90% 30.04 in 10.0 mi NW 3.5 mph - N/A   Scattered Clouds
5:53 AM 46.9 °F 45.0 °F 93% 30.06 in 10.0 mi NW 3.5 mph - N/A   Clear
6:53 AM 46.0 °F 44.1 °F 93% 30.10 in 10.0 mi Calm Calm - N/A   Clear
7:53 AM 50.0 °F 43.0 °F 77% 30.13 in 10.0 mi WNW 6.9 mph - N/A   Clear
8:53 AM 53.1 °F 39.9 °F 61% 30.14 in 10.0 mi NNW 8.1 mph - N/A   Clear
9:53 AM 57.0 °F 36.0 °F 45% 30.16 in 10.0 mi NNW 8.1 mph - N/A   Clear
10:53 AM 59.0 °F 35.1 °F 41% 30.16 in 10.0 mi WNW 10.4 mph - N/A   Clear
11:53 AM 63.0 °F 28.0 °F 27% 30.17 in 10.0 mi NW 9.2 mph - N/A   Clear
12:53 PM 64.9 °F 28.9 °F 26% 30.15 in 10.0 mi West 9.2 mph 20.7 mph N/A   Clear
1:53 PM 66.0 °F 27.0 °F 23% 30.12 in 10.0 mi WNW 13.8 mph 21.9 mph N/A   Clear
2:53 PM 68.0 °F 28.9 °F 23% 30.11 in 10.0 mi West 19.6 mph - N/A   Clear
3:53 PM 66.9 °F 28.9 °F 24% 30.10 in 10.0 mi West 15.0 mph 21.9 mph N/A   Clear
4:53 PM 69.1 °F 28.9 °F 22% 30.11 in 10.0 mi WNW 12.7 mph - N/A   Clear
5:53 PM 68.0 °F 28.9 °F 23% 30.11 in 10.0 mi WNW 11.5 mph 20.7 mph N/A   Clear
6:53 PM 66.0 °F 28.0 °F 24% 30.14 in 10.0 mi West 9.2 mph - N/A   Clear
7:53 PM 57.9 °F 35.1 °F 42% 30.16 in 10.0 mi SW 3.5 mph - N/A   Clear
8:53 PM 57.0 °F 36.0 °F 45% 30.19 in 10.0 mi SSE 3.5 mph - N/A   Clear
9:53 PM 55.9 °F 37.9 °F 51% 30.20 in 10.0 mi ESE 3.5 mph - N/A   Clear
10:53 PM 46.0 °F 37.9 °F 73% 30.21 in 10.0 mi Calm Calm - N/A   Clear
11:53 PM 48.0 °F 43.0 °F 83% 30.22 in 10.0 mi SSE 3.5 mph - N/A   Clear